Regional Weather Roundup
Issued by NWS Newport/Morehead, NC

Current Version | Previous Version | Text Only | Print | Product List | Glossary On
Versions: 1 2 3 4 5 6 7 8 9 10 11 12 13 14 15 16 17 18 19 20 21 22 23 24 25 26 27 28 29 30 31 32 33 34 35 36 37 38 39 40 41 42 43 44 45 46 47 48 49 50
000 ASUS42 KMHX 220322 RWRMHX WEATHER ROUNDUP FOR EASTERN NORTH CAROLINA NATIONAL WEATHER SERVICE NEWPORT/MOREHEAD CITY NC 1100 PM EDT THU AUG 21 2014 NOTE: "FAIR" INDICATES FEW OR NO CLOUDS BELOW 12,000 FEET WITH NO SIGNIFICANT WEATHER AND/OR OBSTRUCTIONS TO VISIBILITY NCZ015>017-031-032-045>047-102-103-220400- NORTH COAST CITY SKY/WX TMP DP RH WIND PRES REMARKS EDENTON MOCLDY 79 77 92 CALM 30.01F ELIZABETH CITY MOCLDY 79 77 94 SW5 30.01S FOG KITTY HAWK MOCLDY 79 74 83 CALM 30.01S MANTEO MOCLDY 81 73 78 CALM 30.02F $$ NCZ045>047-081-094-103-104-220400- CENTRAL COAST CITY SKY/WX TMP DP RH WIND PRES REMARKS FRISCO PTCLDY 79 78 97 W5 30.03S SWANQUARTER N/A 82 N/A N/A W5 29.97F $$ NCZ095-097-098-100-101-220400- SOUTHERN COAST CITY SKY/WX TMP DP RH WIND PRES REMARKS BEAUFORT PTCLDY 82 78 88 S6 30.03F CEDAR ISLAND N/A 81 N/A N/A SW3 30.06S JACKSONVILLE PTCLDY 78 75 90 SW3 30.04S NEWPORT NOT AVBL PINEY ISLAND PTCLDY 80 77 90 S3 30.02F WILMINGTON PTCLDY 79 74 84 SW3 30.05R $$ NCZ011>013-027>030-043-044-078>080-089-090>093-098-220400- COASTAL PLAIN CITY SKY/WX TMP DP RH WIND PRES REMARKS AHOSKIE CLOUDY 76 74 94 CALM 30.01F CLINTON PTCLDY 76 73 91 CALM 30.04F ELIZABETHTOWN PTCLDY 78 74 89 CALM 30.04F GOLDSBORO MOCLDY 80 79 98 SW2 30.01F GREENVILLE MOCLDY 79 77 94 CALM 30.04F HAVELOCK PTCLDY 78 74 87 CALM 30.04F KENANSVILLE PTCLDY 74 72 93 CALM 30.05S KINSTON MOCLDY 78 74 87 SW3 30.03F NEW BERN MOCLDY 78 74 87 CALM 30.04F RICHLANDS PTCLDY 75 72 88 SW3 30.04F ROANOKE RAPIDS NOT AVBL ROCKY MOUNT LGT RAIN 79 75 87 N3 30.04S WASHINGTON MOCLDY 77 75 93 CALM 30.02F WHITEVILLE PTCLDY 76 74 94 CALM 30.05F $$ AMZ130-135-150-152-154-156-158-170-250-252-270-ANZ085-086-088-633-658-670-220400- MARINE OBSERVATIONS STATION/POSITION TIME TEMP WIND PRES WAVE SWELL AIR SEA DIR/SP/G HT/PER HT/PER (UTC) (F) (DEG/KT/KT) (MB) (FT/S) (FT/S) CHESAPEAKE LIGHT 0300 79 180/ 7/ 8 1016.6 BUOY 44014 0300 78 78 150/ 4/ 4 1016.2 2/ 7 2/ 7 DUCK 0300 82 81 210/ 4/ 5 1015.7 2E DUCK 0300 N/A 2/ 7 OREGON INLET 0300 82 84 200/ 4/ 5 1016.3 BUOY 44095 0300 81 N/A 2/ 8 20E OREGON INLET NOT AVBL HATTERAS CG 0300 81 83 220/ 3/ 5 1017.1 DIAMOND BUOY 0300 81 200/ 6/ 8 1016.9 2/ 9 2/ 9 CAPE LOOKOUT 0300 82 220/ 7/ 9 1016.8 BEAUFORT LAB 0300 82 83 210/ 5/ 7 1016.5 30 SE NEW RIVER 0300 83 83 250/ 8/ 10 1016.9 2/ 5 2/ 5 5 SE WRIGHTSVILL 0300 79 83 250/ 8/ 10 N/A BUOY 41002 0153 82 82 240/ 8/ 10 1019.0 2/ 5 2/ 5 BUOY 41004 0300 84 85 210/ 6/ 8 1017.9 2/ 8 2/ 8 $$

USA.gov is the U.S. government's official web portal to all federal, state and local government web resources and services.